When you browse on this site, cookies collect data to enhance your experience and personalize the content and advertising you see.
Visit our Privacy Policy to learn more. By continuing to use the site, you agree to this use of cookies and data.
  • Em Portugal
  • Lista de países
  • Para 7 dias
  • Temperatura da água
  • Mapa do tempo
  • Widgets de tempo
  • user-avatar
    Iniciar Sessão

    Previsão horária em Posele

    Hoje, 26 Janeiro, Domingo

    Tempo Temperatura Precipitação Vento Pressão Humidade
    00:00 -5°C° 0 mm 5 m/s 735 mmHg 83%
    01:00 -5°C° 0 mm 5 m/s 735 mmHg 83%
    02:00 -4°C° 0 mm 4 m/s 736 mmHg 83%
    03:00 -4°C° 0 mm 4 m/s 736 mmHg 85%
    04:00 -4°C° 0 mm 3 m/s 737 mmHg 86%
    05:00 -5°C° 0 mm 3 m/s 737 mmHg 87%
    06:00 -5°C° 0 mm 3 m/s 737 mmHg 87%
    07:00 -5°C° 0 mm 3 m/s 738 mmHg 88%
    08:00 -5°C° 0 mm 3 m/s 738 mmHg 88%
    09:00 -4°C° 0 mm 3 m/s 737 mmHg 85%
    10:00 -3°C° 0 mm 4 m/s 737 mmHg 81%
    11:00 -3°C° 0 mm 4 m/s 737 mmHg 78%
    12:00 -4°C° 0.1 mm 5 m/s 736 mmHg 82%
    13:00 -2°C° 0.1 mm 5 m/s 736 mmHg 87%
    14:00 -3°C° 0.1 mm 6 m/s 735 mmHg 91%
    15:00 -2°C° 0.3 mm 6 m/s 735 mmHg 91%
    16:00 -2°C° 0.3 mm 6 m/s 734 mmHg 92%
    17:00 -1°C° 0.3 mm 6 m/s 734 mmHg 92%
    18:00 +1°C° 0.1 mm 6 m/s 734 mmHg 91%
    19:00 +1°C° 0.1 mm 6 m/s 734 mmHg 91%
    20:00 +1°C° 0.1 mm 6 m/s 734 mmHg 90%
    21:00 +1°C° 0.2 mm 6 m/s 735 mmHg 91%
    22:00 +1°C° 0.2 mm 5 m/s 735 mmHg 92%
    23:00 +1°C° 0.2 mm 5 m/s 735 mmHg 93%

    Amanhã, 27 Janeiro, Segunda-feira

    Tempo Temperatura Precipitação Vento Pressão Humidade
    00:00 +1°C° 0.1 mm 5 m/s 736 mmHg 94%
    01:00 +1°C° 0.1 mm 4 m/s 736 mmHg 95%
    02:00 +1°C° 0.1 mm 4 m/s 737 mmHg 95%
    03:00 +1°C° 0.1 mm 4 m/s 737 mmHg 96%
    04:00 +2°C° 0.1 mm 3 m/s 737 mmHg 96%
    05:00 +1°C° 0.1 mm 3 m/s 738 mmHg 97%
    06:00 +2°C° 0.1 mm 2 m/s 738 mmHg 97%
    07:00 +1°C° 0.1 mm 2 m/s 738 mmHg 98%
    08:00 +2°C° 0.1 mm 1 m/s 738 mmHg 98%
    09:00 +2°C° 0.3 mm 1 m/s 739 mmHg 98%
    10:00 +2°C° 0.3 mm 1 m/s 739 mmHg 98%
    11:00 +2°C° 0.3 mm 1 m/s 739 mmHg 98%
    12:00 +2°C° 0.5 mm 1 m/s 739 mmHg 98%
    13:00 +2°C° 0.5 mm 1 m/s 739 mmHg 98%
    14:00 +3°C° 0.5 mm 1 m/s 738 mmHg 98%
    15:00 +3°C° 0.5 mm 1 m/s 738 mmHg 98%
    16:00 +2°C° 0.5 mm 2 m/s 738 mmHg 98%
    17:00 +2°C° 0.5 mm 2 m/s 738 mmHg 98%
    18:00 +2°C° 0.5 mm 2 m/s 738 mmHg 98%
    19:00 +2°C° 0.5 mm 2 m/s 737 mmHg 98%
    20:00 +2°C° 0.5 mm 2 m/s 737 mmHg 98%
    21:00 +2°C° 0.4 mm 2 m/s 737 mmHg 98%
    22:00 +2°C° 0.4 mm 2 m/s 737 mmHg 98%
    23:00 +1°C° 0.4 mm 2 m/s 737 mmHg 98%

    Depois de amanhã, 28 Janeiro, Terça-feira

    Tempo Temperatura Precipitação Vento Pressão Humidade
    00:00 +1°C° 0.4 mm 2 m/s 737 mmHg 98%
    01:00 +1°C° 0.4 mm 2 m/s 736 mmHg 98%
    02:00 +1°C° 0.4 mm 2 m/s 736 mmHg 98%
    03:00 +1°C° 0.1 mm 2 m/s 736 mmHg 98%
    04:00 +1°C° 0.1 mm 2 m/s 736 mmHg 98%
    05:00 +2°C° 0.1 mm 1 m/s 736 mmHg 98%
    06:00 +2°C° 0.1 mm 1 m/s 736 mmHg 98%
    07:00 +2°C° 0.1 mm 1 m/s 736 mmHg 98%
    08:00 +2°C° 0.1 mm 1 m/s 736 mmHg 98%
    09:00 +2°C° 0 mm 1 m/s 736 mmHg 98%
    10:00 +2°C° 0 mm 1 m/s 736 mmHg 97%
    11:00 +2°C° 0 mm 1 m/s 736 mmHg 97%
    12:00 +2°C° 0 mm 1 m/s 736 mmHg 97%
    13:00 +2°C° 0 mm 1 m/s 736 mmHg 97%
    14:00 +2°C° 0 mm 1 m/s 736 mmHg 97%
    15:00 +2°C° 0 mm 1 m/s 736 mmHg 97%
    16:00 +1°C° 0 mm 2 m/s 736 mmHg 97%
    17:00 -1°C° 0 mm 2 m/s 736 mmHg 97%
    18:00 -1°C° 0 mm 2 m/s 736 mmHg 96%
    19:00 -1°C° 0 mm 2 m/s 736 mmHg 95%
    20:00 -1°C° 0 mm 2 m/s 736 mmHg 94%
    21:00 -1°C° 0 mm 2 m/s 736 mmHg 94%
    22:00 -1°C° 0 mm 2 m/s 736 mmHg 94%
    23:00 -1°C° 0 mm 2 m/s 736 mmHg 94%

    29 Janeiro, Quarta-feira

    Tempo Temperatura Precipitação Vento Pressão Humidade
    00:00 -1°C° 0 mm 2 m/s 736 mmHg 94%
    01:00 -1°C° 0 mm 2 m/s 735 mmHg 94%
    02:00 -1°C° 0 mm 2 m/s 735 mmHg 94%
    03:00 -1°C° 0 mm 2 m/s 735 mmHg 94%
    04:00 -1°C° 0 mm 3 m/s 735 mmHg 95%
    05:00 -1°C° 0 mm 3 m/s 734 mmHg 95%
    06:00 -1°C° 0 mm 3 m/s 734 mmHg 94%
    07:00 -1°C° 0 mm 3 m/s 734 mmHg 93%
    08:00 -2°C° 0 mm 4 m/s 734 mmHg 92%
    09:00 -2°C° 0 mm 4 m/s 734 mmHg 91%
    10:00 -2°C° 0 mm 4 m/s 734 mmHg 90%
    11:00 -2°C° 0 mm 4 m/s 734 mmHg 90%
    12:00 -2°C° 0 mm 4 m/s 734 mmHg 90%
    13:00 -2°C° 0 mm 4 m/s 734 mmHg 90%
    14:00 -2°C° 0 mm 4 m/s 733 mmHg 91%
    15:00 -2°C° 0 mm 4 m/s 733 mmHg 91%
    16:00 -1°C° 0 mm 3 m/s 733 mmHg 91%
    17:00 -1°C° 0 mm 3 m/s 733 mmHg 91%
    18:00 -1°C° 0 mm 3 m/s 733 mmHg 92%
    19:00 -1°C° 0 mm 3 m/s 733 mmHg 93%
    20:00 -1°C° 0 mm 3 m/s 733 mmHg 94%
    21:00 0°C° 0 mm 3 m/s 733 mmHg 95%
    22:00 0°C° 0 mm 3 m/s 733 mmHg 95%
    23:00 -1°C° 0 mm 4 m/s 732 mmHg 96%

    30 Janeiro, Quinta-feira

    Tempo Temperatura Precipitação Vento Pressão Humidade
    00:00 -1°C° 0.1 mm 4 m/s 732 mmHg 96%
    01:00 -1°C° 0.1 mm 4 m/s 732 mmHg 96%
    02:00 0°C° 0.1 mm 3 m/s 732 mmHg 96%
    03:00 -1°C° 0 mm 4 m/s 731 mmHg 96%
    04:00 -1°C° 0 mm 4 m/s 731 mmHg 96%
    05:00 -1°C° 0 mm 4 m/s 731 mmHg 95%
    06:00 -1°C° 0 mm 3 m/s 731 mmHg 94%
    07:00 -1°C° 0 mm 3 m/s 731 mmHg 92%
    08:00 -1°C° 0 mm 3 m/s 731 mmHg 91%
    09:00 -1°C° 0 mm 3 m/s 731 mmHg 91%
    10:00 -1°C° 0 mm 3 m/s 730 mmHg 91%
    11:00 -1°C° 0 mm 3 m/s 730 mmHg 91%
    12:00 -1°C° 0.1 mm 3 m/s 730 mmHg 92%
    13:00 -1°C° 0.1 mm 3 m/s 730 mmHg 93%
    14:00 -1°C° 0.1 mm 3 m/s 730 mmHg 94%
    15:00 -1°C° 0.1 mm 3 m/s 729 mmHg 95%
    16:00 -1°C° 0.1 mm 3 m/s 729 mmHg 95%
    17:00 -1°C° 0.1 mm 3 m/s 729 mmHg 95%
    18:00 -1°C° 0.2 mm 3 m/s 729 mmHg 96%
    19:00 -1°C° 0.2 mm 3 m/s 729 mmHg 96%
    20:00 -1°C° 0.2 mm 2 m/s 729 mmHg 96%
    21:00 -1°C° 0.2 mm 2 m/s 729 mmHg 97%
    22:00 -1°C° 0.2 mm 2 m/s 729 mmHg 97%
    23:00 -1°C° 0.2 mm 2 m/s 730 mmHg 98%

    31 Janeiro, Sexta-feira

    Tempo Temperatura Precipitação Vento Pressão Humidade
    00:00 -1°C° 0.3 mm 2 m/s 730 mmHg 98%
    01:00 -1°C° 0.3 mm 2 m/s 730 mmHg 98%
    02:00 +1°C° 0.3 mm 1 m/s 730 mmHg 98%
    03:00 +1°C° 0.2 mm 1 m/s 730 mmHg 98%
    04:00 +1°C° 0.2 mm 1 m/s 730 mmHg 97%
    05:00 -2°C° 0.2 mm 2 m/s 731 mmHg 97%
    06:00 -2°C° 0.1 mm 2 m/s 731 mmHg 96%
    07:00 -2°C° 0.1 mm 2 m/s 731 mmHg 96%
    08:00 -3°C° 0.1 mm 2 m/s 732 mmHg 95%
    09:00 0°C° 0 mm 1 m/s 732 mmHg 93%
    10:00 0°C° 0 mm 1 m/s 732 mmHg 92%
    11:00 +1°C° 0 mm 1 m/s 733 mmHg 90%
    12:00 +1°C° 0 mm 1 m/s 733 mmHg 90%
    13:00 +1°C° 0 mm 1 m/s 733 mmHg 90%
    14:00 +1°C° 0 mm 1 m/s 734 mmHg 90%
    15:00 +1°C° 0.1 mm 1 m/s 734 mmHg 92%
    16:00 0°C° 0.1 mm 1 m/s 734 mmHg 93%
    17:00 0°C° 0.1 mm 1 m/s 735 mmHg 94%
    18:00 0°C° 0.1 mm 1 m/s 735 mmHg 94%
    19:00 0°C° 0.1 mm 1 m/s 736 mmHg 94%
    20:00 -1°C° 0.1 mm 1 m/s 736 mmHg 95%
    21:00 -2°C° 0 mm 0 m/s 736 mmHg 95%
    22:00 -2°C° 0 mm 0 m/s 737 mmHg 95%
    23:00 -2°C° 0 mm 0 m/s 737 mmHg 95%
    Mostrar mais